STARLINK-36736, 67911

Orbit data source: Space-Track

STARLINK-36736, 67911 is a payload satellite owned by SpaceX/Seattle (US) in LEO that was launched on Sun, 22 Feb 2026 UTC via an FALCON 9 launch vehicle from the Air Force Eastern Test Range (AFETR). Payload-class satellites include a variety of spacecraft equipped with specific instruments for various scientific and technological missions. These include communications satellites like Starlink; space stations such as the ISS; scientific satellites like the Hubble; Earth observation satellites from companies like Planet Labs, Umbra, and HawkEye 360; GPS; miniature CubeSats for education and research; and military/defense satellites.

Loading next visibility...
Identifier
67911, 2026-036H
Orbit
LEO
Country
Flag of USUS
Related business
Manufacturer
SpaceX/Seattle
Mission
Operational Commercial Communications
Bus & Motor
STARLINK V2MO, Unknown motor
Mass
575 kg wet, ~530 kg dry
Launch date (UTC)
2026-02-22 (4 months ago)
Launch vehicle
FALCON 9
Launch site
Air Force Eastern Test Range (AFETR)
Object type
Payload
Rocket body
Debris
Shape & HBR
Box + 2 Pan, 17.7 m
Radar Cross Section
36.964 m², Large (>1 m²)

Expand to show TLE details & history
Last TLE update: 20 hours ago

TLE from 20 hours ago
0 STARLINK-36736
1 67911U 26036H   26171.03191001 -.00033874  00000-0 -12294-2 0  9990
2 67911  43.0021  27.3153 0001011  10.2332 349.8540 15.27518368 19370
Epoch: 2026-06-20T00:45Z
TLE epoch observation values (Epoch: 2026-06-20T00:45:57.024Z)
Latitude
-0.00004°
Longitude
107.57529°
Altitude
482.327 km
Speed
7.626 km/s
True Right ascension
01h 49m 15s
True Declination
0° 00' 00"
Sunlit
Object was in daylight at epoch
Visualization orbit readout
Latitude
Unknown
Longitude
Unknown
Altitude
Unknown
Speed
Unknown
Apparent Right ascension
Unknown
Apparent Declination
Unknown
Sunlit
N/A
Visualization observer readout
Local Sidereal Time
07:20:08
Azimuth
Unknown
Elevation
Unknown
Doppler factor
Unknown
Orbital elements
Apogee altitude
485.872 km
Perigee altitude
484.485 km
Semi-major axis
6,863.315 km
Eccentricity
0.0001
Inclination
43.0021°
RAAN
27.3153°
Arg. of periapsis
10.2332°
True anomaly
349.85196°
Mean anomaly
349.854°
Eccentric anomaly
349.85298°
Mean motion
3.81718 °/min
Orbital period
94.31 mins
BSTAR
-0.0012294
Loading maneuver chart data...
Computing Atmospheric mass density...
Loading historical data...
Loading historical data...
Loading historical data...
Loading historical data...
Loading historical data...
Loading historical data...
Loading historical data...

Documentation

Showing up to 5 results
|